Location: Newark
(36.1358°N, 115.1208°W)
Time: 09:29:33
(UTC+00:00)

Vanguard 1 Rocket - Pass Details

Date: 23 February 2020
Orbit: 650 x 4226 km, 34.3° (Epoch: 07 April)

Event Time Altitude Azimuth Distance (km) Brightness Sun altitude
Rises 11:19:42 0° 262° (W) 4,472 - -36.7°
Reaches altitude 10° 11:23:19 10° 261° (W) 3,042 - -36.0°
Maximum altitude 11:29:58 73° 178° (S) 824 - -34.7°
Exits shadow 11:32:21 29° 98° (E) 1,278 8.6 -34.2°
Drops below altitude 10° 11:34:28 10° 93° (E) 2,087 10.0 -33.8°
Sets 11:36:32 0° 91° (E) 2,956 11.0 -33.4°
